• Em Portugal
  • Lista de países
  • Para 7 dias
  • Temperatura da água
  • Mapas de satélite
  • Mapa do tempo
  • Widgets de tempo
  • user-avatar
    Iniciar Sessão

    Previsão horária em Afanoskovo

    Hoje, 21 Julho, Sábado

    Tempo Temperatura Precipitação Vento Pressão Humidade
    00:00 +19°C° 0 mm 1 m/s 733 mmHg 97%
    01:00 +19°C° 0 mm 1 m/s 733 mmHg 97%
    02:00 +18°C° 0 mm 1 m/s 733 mmHg 97%
    03:00 +18°C° 0 mm 1 m/s 734 mmHg 98%
    04:00 +18°C° 0 mm 1 m/s 734 mmHg 98%
    05:00 +19°C° 0 mm 1 m/s 734 mmHg 98%
    06:00 +20°C° 0 mm 1 m/s 734 mmHg 95%
    07:00 +21°C° 0 mm 1 m/s 734 mmHg 91%
    08:00 +23°C° 0 mm 1 m/s 735 mmHg 88%
    09:00 +24°C° 0,3 mm 1 m/s 735 mmHg 82%
    10:00 +25°C° 0,3 mm 1 m/s 735 mmHg 77%
    11:00 +26°C° 0,3 mm 1 m/s 735 mmHg 71%
    12:00 +27°C° 0,7 mm 1 m/s 734 mmHg 71%
    13:00 +27°C° 0,7 mm 1 m/s 734 mmHg 70%
    14:00 +27°C° 0,7 mm 1 m/s 734 mmHg 70%
    15:00 +27°C° 0,9 mm 2 m/s 734 mmHg 73%
    16:00 +26°C° 0,9 mm 2 m/s 734 mmHg 76%
    17:00 +26°C° 0,9 mm 2 m/s 734 mmHg 79%
    18:00 +25°C° 0,5 mm 1 m/s 734 mmHg 83%
    19:00 +23°C° 0,5 mm 1 m/s 734 mmHg 86%
    20:00 +22°C° 0,5 mm 1 m/s 735 mmHg 90%
    21:00 +22°C° 0,1 mm 1 m/s 735 mmHg 91%
    22:00 +21°C° 0,1 mm 1 m/s 735 mmHg 92%
    23:00 +20°C° 0,1 mm 1 m/s 735 mmHg 93%

    Amanhã, 22 Julho, Domingo

    Tempo Temperatura Precipitação Vento Pressão Humidade
    00:00 +20°C° 0,4 mm 1 m/s 735 mmHg 94%
    01:00 +20°C° 0,4 mm 1 m/s 735 mmHg 95%
    02:00 +19°C° 0,4 mm 1 m/s 735 mmHg 97%
    03:00 +19°C° 0,9 mm 1 m/s 735 mmHg 97%
    04:00 +19°C° 0,9 mm 1 m/s 735 mmHg 97%
    05:00 +19°C° 0,9 mm 1 m/s 735 mmHg 98%
    06:00 +20°C° 0,5 mm 1 m/s 735 mmHg 96%
    07:00 +21°C° 0,5 mm 1 m/s 736 mmHg 94%
    08:00 +22°C° 0,5 mm 1 m/s 736 mmHg 93%
    09:00 +23°C° 0,9 mm 2 m/s 736 mmHg 91%
    10:00 +23°C° 0,9 mm 2 m/s 736 mmHg 90%
    11:00 +24°C° 0,9 mm 2 m/s 736 mmHg 89%
    12:00 +24°C° 1,3 mm 2 m/s 736 mmHg 90%
    13:00 +24°C° 1,3 mm 2 m/s 736 mmHg 90%
    14:00 +23°C° 1,3 mm 2 m/s 736 mmHg 91%
    15:00 +23°C° 1,3 mm 2 m/s 736 mmHg 91%
    16:00 +23°C° 1,3 mm 2 m/s 736 mmHg 91%
    17:00 +23°C° 1,3 mm 2 m/s 736 mmHg 91%
    18:00 +21°C° 0,8 mm 2 m/s 736 mmHg 92%
    19:00 +21°C° 0,8 mm 2 m/s 736 mmHg 93%
    20:00 +20°C° 0,8 mm 2 m/s 736 mmHg 94%
    21:00 +20°C° 0,1 mm 2 m/s 736 mmHg 95%
    22:00 +19°C° 0,1 mm 2 m/s 736 mmHg 95%
    23:00 +19°C° 0,1 mm 2 m/s 736 mmHg 96%

    Depois de amanhã, 23 Julho, Segunda-feira

    Tempo Temperatura Precipitação Vento Pressão Humidade
    00:00 +19°C° 0,1 mm 2 m/s 736 mmHg 97%
    01:00 +19°C° 0,1 mm 2 m/s 736 mmHg 97%
    02:00 +18°C° 0,1 mm 2 m/s 736 mmHg 98%
    03:00 +18°C° 0,1 mm 2 m/s 736 mmHg 98%
    04:00 +18°C° 0,1 mm 2 m/s 736 mmHg 98%
    05:00 +18°C° 0,1 mm 2 m/s 736 mmHg 98%
    06:00 +19°C° 0,1 mm 2 m/s 736 mmHg 95%
    07:00 +20°C° 0,1 mm 2 m/s 736 mmHg 93%
    08:00 +21°C° 0,1 mm 2 m/s 736 mmHg 90%
    09:00 +23°C° 0,3 mm 2 m/s 736 mmHg 84%
    10:00 +24°C° 0,3 mm 3 m/s 737 mmHg 79%
    11:00 +25°C° 0,3 mm 3 m/s 737 mmHg 73%
    12:00 +25°C° 0,8 mm 3 m/s 736 mmHg 75%
    13:00 +25°C° 0,8 mm 3 m/s 736 mmHg 78%
    14:00 +25°C° 0,8 mm 3 m/s 736 mmHg 80%
    15:00 +25°C° 0,5 mm 3 m/s 736 mmHg 80%
    16:00 +24°C° 0,5 mm 3 m/s 736 mmHg 80%
    17:00 +24°C° 0,5 mm 3 m/s 736 mmHg 80%
    18:00 +23°C° 0,1 mm 2 m/s 736 mmHg 84%
    19:00 +21°C° 0,1 mm 2 m/s 736 mmHg 88%
    20:00 +19°C° 0,1 mm 2 m/s 737 mmHg 92%
    21:00 +18°C° 0 mm 2 m/s 737 mmHg 93%
    22:00 +17°C° 0 mm 2 m/s 737 mmHg 95%
    23:00 +16°C° 0 mm 2 m/s 737 mmHg 97%

    24 Julho, Terça-feira

    Tempo Temperatura Precipitação Vento Pressão Humidade
    00:00 +16°C° 0 mm 2 m/s 737 mmHg 97%
    01:00 +16°C° 0 mm 2 m/s 737 mmHg 98%
    02:00 +15°C° 0 mm 1 m/s 737 mmHg 98%
    03:00 +16°C° 0 mm 2 m/s 737 mmHg 98%
    04:00 +16°C° 0 mm 2 m/s 737 mmHg 98%
    05:00 +16°C° 0 mm 2 m/s 737 mmHg 98%
    06:00 +17°C° 0 mm 2 m/s 737 mmHg 95%
    07:00 +18°C° 0 mm 2 m/s 737 mmHg 92%
    08:00 +18°C° 0 mm 2 m/s 738 mmHg 89%
    09:00 +19°C° 0 mm 2 m/s 738 mmHg 86%
    10:00 +20°C° 0 mm 2 m/s 738 mmHg 83%
    11:00 +20°C° 0 mm 2 m/s 738 mmHg 80%
    12:00 +21°C° 0 mm 2 m/s 738 mmHg 79%
    13:00 +21°C° 0 mm 2 m/s 738 mmHg 77%
    14:00 +21°C° 0 mm 3 m/s 738 mmHg 75%
    15:00 +21°C° 0 mm 3 m/s 738 mmHg 75%
    16:00 +22°C° 0 mm 3 m/s 738 mmHg 75%
    17:00 +22°C° 0 mm 3 m/s 738 mmHg 75%
    18:00 +21°C° 0,1 mm 2 m/s 738 mmHg 81%
    19:00 +20°C° 0,1 mm 2 m/s 738 mmHg 86%
    20:00 +19°C° 0,1 mm 2 m/s 738 mmHg 92%
    21:00 +18°C° 0 mm 2 m/s 738 mmHg 94%
    22:00 +17°C° 0 mm 2 m/s 738 mmHg 96%
    23:00 +17°C° 0 mm 2 m/s 738 mmHg 98%

    25 Julho, Quarta-feira

    Tempo Temperatura Precipitação Vento Pressão Humidade
    00:00 +17°C° 0 mm 2 m/s 738 mmHg 98%
    01:00 +17°C° 0 mm 2 m/s 738 mmHg 98%
    02:00 +17°C° 0 mm 2 m/s 738 mmHg 99%
    03:00 +17°C° 0,1 mm 2 m/s 738 mmHg 98%
    04:00 +17°C° 0,1 mm 2 m/s 738 mmHg 98%
    05:00 +17°C° 0,1 mm 2 m/s 738 mmHg 98%
    06:00 +18°C° 0,1 mm 2 m/s 738 mmHg 96%
    07:00 +19°C° 0,1 mm 2 m/s 738 mmHg 94%
    08:00 +20°C° 0,1 mm 2 m/s 739 mmHg 92%
    09:00 +20°C° 0,1 mm 2 m/s 739 mmHg 90%
    10:00 +21°C° 0,1 mm 2 m/s 739 mmHg 89%
    11:00 +23°C° 0,1 mm 2 m/s 739 mmHg 87%
    12:00 +22°C° 0,2 mm 3 m/s 739 mmHg 84%
    13:00 +24°C° 0,2 mm 3 m/s 739 mmHg 82%
    14:00 +24°C° 0,2 mm 3 m/s 739 mmHg 80%
    15:00 +22°C° 0,7 mm 3 m/s 739 mmHg 84%
    16:00 +22°C° 0,7 mm 3 m/s 739 mmHg 87%
    17:00 +21°C° 0,7 mm 3 m/s 739 mmHg 91%
    18:00 +20°C° 0,1 mm 3 m/s 739 mmHg 93%
    19:00 +19°C° 0,1 mm 3 m/s 739 mmHg 94%
    20:00 +18°C° 0,1 mm 2 m/s 739 mmHg 95%
    21:00 +18°C° 0,1 mm 2 m/s 739 mmHg 96%
    22:00 +18°C° 0,1 mm 2 m/s 739 mmHg 96%
    23:00 +17°C° 0,1 mm 2 m/s 739 mmHg 97%

    26 Julho, Quinta-feira

    Tempo Temperatura Precipitação Vento Pressão Humidade
    00:00 +17°C° 0,1 mm 2 m/s 739 mmHg 97%
    01:00 +17°C° 0,1 mm 2 m/s 739 mmHg 98%
    02:00 +17°C° 0,1 mm 2 m/s 739 mmHg 98%
    03:00 +17°C° 0 mm 2 m/s 739 mmHg 98%
    04:00 +17°C° 0 mm 2 m/s 739 mmHg 98%
    05:00 +17°C° 0 mm 2 m/s 739 mmHg 97%
    06:00 +18°C° 0 mm 2 m/s 739 mmHg 96%
    07:00 +19°C° 0 mm 3 m/s 740 mmHg 95%
    08:00 +19°C° 0 mm 3 m/s 740 mmHg 94%
    09:00 +20°C° 0,1 mm 3 m/s 740 mmHg 93%
    10:00 +20°C° 0,1 mm 3 m/s 740 mmHg 92%
    11:00 +20°C° 0,1 mm 3 m/s 741 mmHg 91%
    12:00 +21°C° 0,1 mm 3 m/s 741 mmHg 89%
    13:00 +22°C° 0,1 mm 3 m/s 741 mmHg 87%
    14:00 +22°C° 0,1 mm 3 m/s 741 mmHg 85%
    15:00 +24°C° 0,1 mm 3 m/s 741 mmHg 82%
    16:00 +25°C° 0,1 mm 3 m/s 741 mmHg 79%
    17:00 +26°C° 0,1 mm 3 m/s 741 mmHg 75%
    18:00 +25°C° 0 mm 2 m/s 741 mmHg 81%
    19:00 +24°C° 0 mm 2 m/s 741 mmHg 86%
    20:00 +23°C° 0 mm 2 m/s 741 mmHg 92%
    21:00 +21°C° 0 mm 2 m/s 741 mmHg 94%
    22:00 +20°C° 0 mm 2 m/s 742 mmHg 95%
    23:00 +20°C° 0 mm 2 m/s 742 mmHg 97%
    Mostrar mais